| time (UTC) | temp F | wind direction | speed knots | gust knots | rain 1hr in | rain 24hr in | rain mn in | humidity % | barometer mb |
| 20260507151247 | 62 | 106 | 2.6 | 6.1 | 0.00 | 0.00 | 0.00 | 53 | 1016.3 |
| 20260507150747 | 62 | 66 | 4.3 | 7.8 | 0.00 | 0.00 | 0.00 | 53 | 1016.3 |
| 20260507150248 | 62 | 105 | 1.7 | 8.7 | 0.00 | 0.00 | 0.00 | 51 | 1016.3 |
| 20260507144748 | 61 | 87 | 4.3 | 10.4 | 0.00 | 0.00 | 0.00 | 50 | 1016.2 |
| 20260507144248 | 61 | 95 | 5.2 | 10.4 | 0.00 | 0.00 | 0.00 | 55 | 1016.3 |
| 20260507143748 | 60 | 100 | 6.1 | 8.7 | 0.00 | 0.00 | 0.00 | 49 | 1016.2 |
| 20260507143248 | 62 | 84 | 4.3 | 12.2 | 0.00 | 0.00 | 0.00 | 51 | 1016.2 |
| 20260507141747 | 62 | 90 | 4.3 | 8.7 | 0.00 | 0.00 | 0.00 | 50 | 1016.3 |
| 20260507140747 | 62 | 91 | 4.3 | 13.9 | 0.00 | 0.00 | 0.00 | 49 | 1016.2 |
| 20260507140248 | 63 | 99 | 4.3 | 13.0 | 0.00 | 0.00 | 0.00 | 48 | 1016.2 |
| 20260507134248 | 63 | 99 | 4.3 | 8.7 | 0.00 | 0.00 | 0.00 | 47 | 1016.2 |
| 20260507133748 | 62 | 81 | 4.3 | 8.7 | 0.00 | 0.00 | 0.00 | 53 | 1016.2 |
| 20260507133248 | 63 | 104 | 4.3 | 8.7 | 0.00 | 0.00 | 0.00 | 46 | 1016.2 |
| 20260507131747 | 65 | 57 | 2.6 | 8.7 | 0.00 | 0.00 | 0.00 | 51 | 1016.2 |
| 20260507131248 | 65 | 90 | 0.9 | 6.1 | 0.00 | 0.00 | 0.00 | 52 | 1016.1 |
| 20260507130748 | 64 | 114 | 3.5 | 10.4 | 0.00 | 0.00 | 0.00 | 51 | 1016.1 |
| 20260507124748 | 63 | 94 | 4.3 | 7.8 | 0.00 | 0.00 | 0.00 | 55 | 1016.0 |
| 20260507124248 | 64 | 57 | 2.6 | 7.0 | 0.00 | 0.00 | 0.00 | 46 | 1016.0 |
| 20260507121248 | 63 | 100 | 7.8 | 12.2 | 0.00 | 0.00 | 0.00 | 48 | 1015.9 |
| 20260507120748 | 64 | 104 | 3.5 | 10.4 | 0.00 | 0.00 | 0.00 | 48 | 1015.9 |
| 20260507120248 | 63 | 61 | 4.3 | 10.4 | 0.00 | 0.00 | 0.00 | 51 | 1015.9 |
| 20260507114748 | 66 | 77 | 2.6 | 7.0 | 0.00 | 0.00 | 0.00 | 48 | 1015.8 |
| 20260507113749 | 65 | 63 | 1.7 | 7.0 | 0.00 | 0.00 | 0.00 | 49 | 1015.8 |
| 20260507113248 | 64 | 54 | 3.5 | 10.4 | 0.00 | 0.00 | 0.00 | 49 | 1015.8 |
| 20260507111748 | 64 | 109 | 5.2 | 10.4 | 0.00 | 0.00 | 0.00 | 54 | 1015.7 |
| 20260507111248 | 63 | 52 | 4.3 | 7.8 | 0.00 | 0.00 | 0.00 | 51 | 1015.7 |
| 20260507110749 | 64 | 71 | 2.6 | 7.0 | 0.00 | 0.00 | 0.00 | 51 | 1015.7 |
| 20260507104749 | 64 | 73 | 3.5 | 6.1 | 0.00 | 0.00 | 0.00 | 52 | 1015.8 |
| 20260507104248 | 63 | 116 | 2.6 | 7.0 | 0.00 | 0.00 | 0.00 | 54 | 1015.8 |
| 20260507103748 | 62 | 99 | 6.1 | 7.8 | 0.00 | 0.00 | 0.00 | 54 | 1015.8 |
| 20260507103249 | 62 | 83 | 4.3 | 7.8 | 0.00 | 0.00 | 0.00 | 53 | 1015.7 |
| 20260507101249 | 63 | 102 | 5.2 | 8.7 | 0.00 | 0.00 | 0.00 | 53 | 1015.5 |
| 20260507100749 | 64 | 85 | 3.5 | 7.8 | 0.00 | 0.00 | 0.00 | 56 | 1015.5 |
| 20260507094748 | 61 | 84 | 3.5 | 7.0 | 0.00 | 0.00 | 0.00 | 61 | 1015.4 |
| 20260507094249 | 61 | 107 | 2.6 | 7.8 | 0.00 | 0.00 | 0.00 | 60 | 1015.4 |
| 20260507093748 | 62 | 84 | 1.7 | 7.0 | 0.00 | 0.00 | 0.00 | 59 | 1015.4 |
| 20260507093248 | 61 | 55 | 1.7 | 7.8 | 0.00 | 0.00 | 0.00 | 62 | 1015.4 |
| 20260507091249 | 60 | 86 | 4.3 | 8.7 | 0.00 | 0.00 | 0.00 | 58 | 1015.2 |
| 20260507090748 | 60 | 110 | 2.6 | 7.0 | 0.00 | 0.00 | 0.00 | 66 | 1015.1 |
| 20260507090249 | 59 | 97 | 4.3 | 8.7 | 0.00 | 0.00 | 0.00 | 62 | 1015.1 |
| 20260507084748 | 59 | 90 | 6.1 | 10.4 | 0.00 | 0.00 | 0.00 | 62 | 1015.0 |
| 20260507084249 | 60 | 94 | 2.6 | 7.0 | 0.00 | 0.00 | 0.00 | 65 | 1015.0 |
| 20260507083748 | 59 | 74 | 1.7 | 7.0 | 0.00 | 0.00 | 0.00 | 67 | 1015.0 |
| 20260507083249 | 58 | 96 | 2.6 | 10.4 | 0.00 | 0.00 | 0.00 | 67 | 1014.9 |
| 20260507081749 | 58 | 105 | 3.5 | 7.0 | 0.00 | 0.00 | 0.00 | 71 | 1014.8 |
| 20260507080749 | 58 | 98 | 2.6 | 7.8 | 0.00 | 0.00 | 0.00 | 70 | 1014.8 |
| 20260507080249 | 57 | 76 | 1.7 | 8.7 | 0.00 | 0.00 | 0.00 | 69 | 1014.7 |
| 20260507074749 | 57 | 42 | 5.2 | 8.7 | 0.00 | 0.00 | 0.00 | 67 | 1014.6 |
| 20260507074249 | 57 | 102 | 2.6 | 7.0 | 0.00 | 0.00 | 0.00 | 70 | 1014.5 |
| 20260507073749 | 56 | 66 | 1.7 | 6.1 | 0.00 | 0.00 | 0.00 | 72 | 1014.4 |
| 20260507073249 | 56 | 102 | 2.6 | 7.0 | 0.00 | 0.00 | 0.00 | 70 | 1014.4 |
| 20260507071749 | 55 | 85 | 2.6 | 7.0 | 0.00 | 0.00 | 0.00 | 74 | 1014.4 |
| 20260507071249 | 55 | 47 | 1.7 | 6.1 | 0.00 | 0.00 | 0.00 | 73 | 1014.4 |
| 20260507070749 | 55 | 79 | 2.6 | 7.0 | 0.00 | 0.00 | 0.00 | 74 | 1014.3 |
| 20260507070249 | 54 | 99 | 4.3 | 7.8 | 0.00 | 0.00 | 0.00 | 74 | 1014.3 |
| 20260507064750 | 55 | 73 | 1.7 | 6.1 | 0.00 | 0.00 | 0.00 | 83 | 1014.2 |
| 20260507064249 | 54 | 66 | 1.7 | 4.3 | 0.00 | 0.00 | 0.00 | 85 | 1014.2 |
| 20260507063749 | 53 | 65 | 2.6 | 8.7 | 0.00 | 0.00 | 0.00 | 87 | 1014.1 |
| 20260507063249 | 52 | 55 | 1.7 | 7.8 | 0.00 | 0.00 | 0.00 | 90 | 1014.0 |
| 20260507061749 | 49 | 108 | 3.5 | 7.0 | 0.00 | 0.00 | 0.00 | 93 | 1013.9 |
| 20260507061249 | 49 | 103 | 1.7 | 6.1 | 0.00 | 0.00 | 0.00 | 93 | 1013.9 |
| 20260507060750 | 48 | 119 | 2.6 | 7.0 | 0.00 | 0.00 | 0.00 | 93 | 1013.8 |
| 20260507060249 | 47 | 98 | 2.6 | 6.1 | 0.00 | 0.00 | 0.00 | 93 | 1013.8 |
| 20260507054749 | 46 | 93 | 0.9 | 2.6 | 0.00 | 0.00 | 0.00 | 93 | 1013.8 |
| 20260507054249 | 46 | 82 | 0.9 | 5.2 | 0.00 | 0.00 | 0.00 | 93 | 1013.8 |
| 20260507053249 | 45 | 49 | 0.9 | 4.3 | 0.00 | 0.00 | 0.00 | 93 | 1013.6 |
| 20260507051749 | 44 | 94 | 0.9 | 4.3 | 0.00 | 0.00 | 0.00 | 93 | 1013.5 |
| 20260507051251 | 44 | 92 | 0.9 | 4.3 | 0.00 | 0.00 | 0.00 | 93 | 1013.4 |
| 20260507050750 | 44 | 101 | 0.9 | 2.6 | 0.00 | 0.00 | 0.00 | 93 | 1013.4 |
| 20260507050249 | 44 | 102 | 0.9 | 6.1 | 0.00 | 0.00 | 0.00 | 93 | 1013.4 |
| 20260507044750 | 43 | 66 | 0.9 | 2.6 | 0.00 | 0.00 | 0.00 | 93 | 1013.2 |
| 20260507044249 | 43 | 90 | 0.0 | 2.6 | 0.00 | 0.00 | 0.00 | 93 | 1013.2 |
| 20260507043749 | 43 | 93 | 0.9 | 6.1 | 0.00 | 0.00 | 0.00 | 93 | 1013.1 |
| 20260507041749 | 43 | 95 | 1.7 | 4.3 | 0.00 | 0.00 | 0.00 | 92 | 1013.0 |
| 20260507041249 | 43 | 97 | 1.7 | 2.6 | 0.00 | 0.00 | 0.00 | 93 | 1012.9 |
| 20260507040750 | 43 | 98 | 1.7 | 6.1 | 0.00 | 0.00 | 0.00 | 93 | 1012.9 |
| 20260507034750 | 42 | 76 | 1.7 | 4.3 | 0.00 | 0.00 | 0.00 | 92 | 1012.8 |
| 20260507034250 | 42 | 93 | 0.9 | 6.1 | 0.00 | 0.00 | 0.00 | 92 | 1012.7 |
| 20260507033249 | 42 | 97 | 0.9 | 4.3 | 0.00 | 0.00 | 0.00 | 92 | 1012.6 |
| 20260507031250 | 42 | 107 | 0.9 | 6.1 | 0.00 | 0.00 | 0.00 | 92 | 1012.6 |
| 20260507030750 | 42 | 105 | 0.9 | 6.1 | 0.00 | 0.00 | 0.00 | 92 | 1012.5 |
| 20260507024750 | 42 | 61 | 0.9 | 4.3 | 0.00 | 0.00 | 0.00 | 92 | 1012.4 |
| 20260507024250 | 42 | 94 | 0.9 | 2.6 | 0.00 | 0.00 | 0.00 | 92 | 1012.4 |
| 20260507023750 | 43 | 99 | 1.7 | 7.0 | 0.00 | 0.00 | 0.00 | 92 | 1012.4 |
| 20260507023250 | 43 | 56 | 0.9 | 6.1 | 0.00 | 0.00 | 0.00 | 92 | 1012.3 |
| 20260507021750 | 43 | 85 | 1.7 | 7.0 | 0.00 | 0.00 | 0.00 | 92 | 1012.3 |
| 20260507020750 | 43 | 84 | 2.6 | 6.1 | 0.00 | 0.00 | 0.00 | 92 | 1012.2 |
| 20260507020250 | 43 | 98 | 1.7 | 6.1 | 0.00 | 0.00 | 0.00 | 91 | 1012.2 |
| 20260507014750 | 44 | 62 | 1.7 | 4.3 | 0.00 | 0.00 | 0.00 | 92 | 1012.1 |
| 20260507014250 | 44 | 96 | 1.7 | 6.1 | 0.00 | 0.00 | 0.00 | 92 | 1012.1 |
| 20260507013750 | 44 | 101 | 0.9 | 4.3 | 0.00 | 0.00 | 0.00 | 91 | 1012.1 |
| 20260507013250 | 44 | 97 | 2.6 | 7.0 | 0.00 | 0.00 | 0.00 | 91 | 1012.0 |
| 20260507011750 | 44 | 99 | 1.7 | 6.1 | 0.00 | 0.00 | 0.00 | 91 | 1012.0 |
| 20260507011250 | 44 | 23 | 0.9 | 6.1 | 0.00 | 0.00 | 0.00 | 91 | 1012.0 |
| 20260507010750 | 44 | 72 | 1.7 | 4.3 | 0.00 | 0.00 | 0.00 | 91 | 1012.0 |
| 20260507004751 | 43 | 38 | 1.7 | 4.3 | 0.00 | 0.00 | 0.00 | 91 | 1011.9 |
| 20260507004251 | 43 | 24 | 1.7 | 6.1 | 0.00 | 0.00 | 0.00 | 91 | 1011.9 |
| 20260507003250 | 43 | 101 | 1.7 | 6.1 | 0.00 | 0.00 | 0.00 | 90 | 1011.8 |
| 20260507001750 | 44 | 76 | 1.7 | 4.3 | 0.00 | 0.00 | 0.00 | 90 | 1011.7 |
| 20260507001250 | 44 | 51 | 1.7 | 7.0 | 0.00 | 0.00 | 0.00 | 90 | 1011.7 |
| 20260507000251 | 44 | 88 | 0.9 | 7.0 | 0.00 | 0.00 | 0.00 | 90 | 1011.7 |
| 20260506234751 | 44 | 74 | 1.7 | 6.1 | 0.00 | 0.00 | 0.00 | 90 | 1011.7 |
| 20260506234250 | 44 | 86 | 1.7 | 6.1 | 0.00 | 0.00 | 0.00 | 90 | 1011.7 |
| 20260506233251 | 44 | 87 | 1.7 | 7.8 | 0.00 | 0.00 | 0.00 | 90 | 1011.7 |
| 20260506231750 | 44 | 71 | 1.7 | 7.0 | 0.00 | 0.00 | 0.00 | 90 | 1011.6 |
| 20260506231251 | 44 | 72 | 1.7 | 6.1 | 0.00 | 0.00 | 0.00 | 90 | 1011.6 |
| 20260506224751 | 45 | 96 | 2.6 | 7.0 | 0.00 | 0.00 | 0.00 | 89 | 1011.5 |
| 20260506224251 | 45 | 87 | 1.7 | 6.1 | 0.00 | 0.00 | 0.00 | 89 | 1011.4 |
| 20260506223751 | 45 | 80 | 2.6 | 6.1 | 0.00 | 0.00 | 0.00 | 89 | 1011.4 |
| 20260506223250 | 45 | 97 | 0.9 | 7.8 | 0.00 | 0.00 | 0.00 | 89 | 1011.4 |
| 20260506221751 | 45 | 103 | 2.6 | 6.1 | 0.00 | 0.00 | 0.00 | 89 | 1011.3 |
| 20260506220251 | 46 | 78 | 0.9 | 8.7 | 0.00 | 0.00 | 0.00 | 88 | 1011.3 |
| 20260506214251 | 46 | 84 | 1.7 | 7.8 | 0.00 | 0.00 | 0.00 | 88 | 1011.2 |
| 20260506213751 | 46 | 89 | 1.7 | 11.3 | 0.00 | 0.00 | 0.00 | 88 | 1011.2 |
| 20260506213251 | 46 | 46 | 2.6 | 8.7 | 0.00 | 0.00 | 0.00 | 88 | 1011.1 |
| 20260506211751 | 47 | 98 | 2.6 | 7.8 | 0.00 | 0.00 | 0.00 | 87 | 1011.1 |
| 20260506211251 | 47 | 95 | 5.2 | 10.4 | 0.00 | 0.00 | 0.00 | 87 | 1011.0 |
| 20260506210751 | 47 | 61 | 2.6 | 8.7 | 0.00 | 0.00 | 0.00 | 87 | 1010.9 |
| 20260506210251 | 47 | 116 | 3.5 | 13.0 | 0.00 | 0.00 | 0.00 | 87 | 1010.9 |
| 20260506204252 | 47 | 97 | 5.2 | 10.4 | 0.00 | 0.00 | 0.00 | 86 | 1010.8 |
| 20260506203751 | 48 | 78 | 4.3 | 11.3 | 0.00 | 0.00 | 0.00 | 86 | 1010.7 |
| 20260506203251 | 48 | 53 | 2.6 | 13.9 | 0.00 | 0.00 | 0.00 | 86 | 1010.7 |
| 20260506201251 | 48 | 92 | 4.3 | 7.8 | 0.00 | 0.00 | 0.00 | 85 | 1010.6 |
| 20260506200751 | 48 | 78 | 5.2 | 11.3 | 0.00 | 0.00 | 0.00 | 84 | 1010.6 |
| 20260506200252 | 49 | 57 | 4.3 | 13.0 | 0.00 | 0.00 | 0.00 | 84 | 1010.5 |
| 20260506194751 | 49 | 101 | 5.2 | 13.0 | 0.00 | 0.00 | 0.00 | 82 | 1010.4 |
| 20260506194251 | 49 | 93 | 5.2 | 13.0 | 0.00 | 0.00 | 0.00 | 82 | 1010.4 |
| 20260506193751 | 49 | 90 | 7.0 | 12.2 | 0.00 | 0.00 | 0.00 | 82 | 1010.4 |
| 20260506193252 | 49 | 87 | 4.3 | 12.2 | 0.00 | 0.00 | 0.00 | 81 | 1010.4 |
| 20260506191751 | 50 | 77 | 3.5 | 7.8 | 0.00 | 0.00 | 0.00 | 80 | 1010.2 |
| 20260506191251 | 50 | 113 | 5.2 | 11.3 | 0.00 | 0.00 | 0.00 | 80 | 1010.1 |
| 20260506190751 | 50 | 111 | 4.3 | 10.4 | 0.00 | 0.00 | 0.00 | 80 | 1010.0 |
| 20260506190252 | 50 | 88 | 7.8 | 13.0 | 0.00 | 0.00 | 0.00 | 80 | 1009.9 |
| 20260506184751 | 51 | 88 | 6.1 | 11.3 | 0.00 | 0.00 | 0.00 | 79 | 1009.8 |
| 20260506184252 | 51 | 112 | 4.3 | 7.8 | 0.00 | 0.00 | 0.00 | 79 | 1009.8 |
| 20260506183252 | 51 | 98 | 5.2 | 12.2 | 0.00 | 0.00 | 0.00 | 79 | 1009.7 |
| 20260506181751 | 52 | 104 | 5.2 | 10.4 | 0.00 | 0.00 | 0.00 | 78 | 1009.5 |
| 20260506180252 | 53 | 90 | 1.7 | 7.8 | 0.00 | 0.00 | 0.00 | 76 | 1009.2 |
| 20260506174752 | 53 | 76 | 2.6 | 6.1 | 0.00 | 0.00 | 0.00 | 74 | 1009.2 |
| 20260506174251 | 53 | 51 | 1.7 | 7.8 | 0.00 | 0.00 | 0.00 | 73 | 1009.1 |
| 20260506173752 | 53 | 26 | 1.7 | 7.0 | 0.00 | 0.00 | 0.00 | 72 | 1009.1 |
| 20260506173252 | 54 | 61 | 2.6 | 8.7 | 0.00 | 0.00 | 0.00 | 71 | 1009.1 |
| 20260506171752 | 54 | 76 | 1.7 | 6.1 | 0.00 | 0.00 | 0.00 | 70 | 1008.9 |
| 20260506171251 | 55 | 65 | 1.7 | 6.1 | 0.00 | 0.00 | 0.00 | 69 | 1008.9 |
| 20260506170752 | 55 | 33 | 2.6 | 8.7 | 0.00 | 0.00 | 0.00 | 69 | 1008.9 |
| 20260506164752 | 56 | 27 | 3.5 | 8.7 | 0.00 | 0.00 | 0.00 | 67 | 1008.8 |
| 20260506164252 | 56 | 67 | 2.6 | 7.0 | 0.00 | 0.00 | 0.00 | 68 | 1008.8 |
| 20260506163752 | 57 | 55 | 2.6 | 7.0 | 0.00 | 0.00 | 0.00 | 66 | 1008.8 |
| 20260506163252 | 57 | 40 | 2.6 | 7.8 | 0.00 | 0.00 | 0.00 | 64 | 1008.8 |
| 20260506161752 | 58 | 74 | 2.6 | 7.8 | 0.00 | 0.00 | 0.00 | 63 | 1008.8 |
| 20260506161252 | 59 | 105 | 2.6 | 8.7 | 0.00 | 0.00 | 0.00 | 63 | 1008.7 |
| 20260506160752 | 58 | 37 | 2.6 | 7.8 | 0.00 | 0.00 | 0.00 | 63 | 1008.8 |
| 20260506160252 | 58 | 48 | 2.6 | 7.0 | 0.00 | 0.00 | 0.00 | 62 | 1008.7 |
| 20260506154752 | 58 | 36 | 1.7 | 6.1 | 0.00 | 0.00 | 0.00 | 59 | 1008.8 |
| 20260506154252 | 59 | 60 | 2.6 | 6.1 | 0.00 | 0.00 | 0.00 | 57 | 1008.8 |
| 20260506153752 | 58 | 32 | 3.5 | 7.8 | 0.00 | 0.00 | 0.00 | 55 | 1008.8 |
| 20260506153252 | 58 | 37 | 2.6 | 12.2 | 0.00 | 0.00 | 0.00 | 56 | 1008.8 |
| 20260506151752 | 59 | 33 | 2.6 | 7.8 | 0.00 | 0.00 | 0.00 | 55 | 1008.8 |